Location: Strawberry
(45.6646°N, 111.9596°W)
Time: 20:48:24
(UTC+00:00)

Envisat - Pass Details

Date: 19 August 2022
Orbit: 764 x 765 km, 98.2° (Epoch: 27 September)

Event Time Altitude Azimuth Distance (km) Brightness Sun altitude
Rises 10:19:32 0° 35° (NE) 3,241 7.8 -20.4°
Reaches altitude 10° 10:24:05 10° 73° (ENE) 2,306 6.4 -19.9°
Maximum altitude 10:25:12 11° 86° (E) 2,257 6.1 -19.7°
Drops below altitude 10° 10:26:20 10° 99° (E) 2,301 5.9 -19.6°
Sets 10:30:50 0° 137° (SE) 3,219 6.2 -19.0°
